{"data":{"norad_id":57985,"intl_designator":"2023-151X","name":"STARLINK-30519","alt_names":[],"object_type":"PAYLOAD","status":"ACTIVE","operator":null,"country":"US","launch_date":"2023-09-30","launch_site_code":"AFETR","launch_vehicle":null,"mission":null,"orbit_class":"UNKNOWN","rcs_meters":null,"size_class":null,"mass_kg":null,"dimensions":null,"purposes":["comms"],"wikipedia_slug":null,"has_3d_model":false,"image_url":null,"decayed_at":null,"tle_current":{"epoch":"2026-05-24T19:34:16.076640Z","epoch_age_seconds":101072,"freshness":"FRESH","line1":"1 57985U 23151X   26144.81546385 -.00000412  00000+0 -54335-5 0  9996","line2":"2 57985  43.0024 280.9502 0001556 272.9579  87.1094 15.27575091147174","mean_motion":15.27575091,"eccentricity":0.0001556,"inclination_deg":43.0024,"raan_deg":280.9502,"arg_perigee_deg":272.9579,"mean_anomaly_deg":87.1094,"bstar":-5.4335e-6,"rev_number":14717,"period_min":94.26705164833,"perigee_km":481.99619254726,"apogee_km":484.13139823478,"semimajor_km":6861.200795391,"source":"CELESTRAK","updated_at":"2026-05-25T13:38:18.489101Z"}}}